📊 Raw Sensor Data
Showing records 47476 to 47500 of 85,085 total
| ID | Distance (ft) | Battery V | Battery A | Int Temp (°F) | Int Humid (%) | Ext Temp (°F) | Solar V | RSSI | SNR | Time Stamp |
|---|---|---|---|---|---|---|---|---|---|---|
| 37622 | -- | 4.08 | 0 | 86 | 40 | 74 | 5.10 | -70 | 9 | 04/12/2025 04:15 PM |
| 37621 | -- | 3.82 | 0 | 85 | 39 | 74 | 5.10 | -71 | 8 | 04/12/2025 04:01 PM |
| 37620 | -- | 3.82 | 0 | 84 | 39 | 74 | 5.10 | -71 | 9 | 04/12/2025 03:45 PM |
| 37619 | -- | 3.82 | 0 | 83 | 39 | 73 | 5.10 | -70 | 9 | 04/12/2025 03:30 PM |
| 37618 | -- | 3.82 | 0 | 81 | 39 | 72 | 5.10 | -70 | 8 | 04/12/2025 03:00 PM |
| 37617 | -- | 3.82 | 0 | 80 | 38 | 71 | 5.10 | -69 | 8 | 04/12/2025 02:31 PM |
| 37616 | -- | 3.82 | 0 | 79 | 38 | 71 | 5.10 | -71 | 8 | 04/12/2025 02:15 PM |
| 37615 | -- | 3.82 | 0 | 78 | 38 | 69 | 5.10 | -70 | 9 | 04/12/2025 02:00 PM |
| 37614 | -- | 3.82 | 0 | 77 | 38 | 70 | 5.10 | -71 | 9 | 04/12/2025 01:45 PM |
| 37613 | -- | 3.82 | 0 | 76 | 39 | 69 | 5.10 | -70 | 8 | 04/12/2025 01:30 PM |
| 37612 | -- | 3.82 | 0 | 75 | 38 | 69 | 5.10 | -71 | 8 | 04/12/2025 01:15 PM |
| 37611 | -- | 3.82 | 0 | 74 | 39 | 69 | 5.10 | -71 | 8 | 04/12/2025 01:00 PM |
| 37610 | -- | 3.83 | 0 | 72 | 39 | 67 | 5.10 | -71 | 9 | 04/12/2025 12:45 PM |
| 37609 | -- | 4.08 | 0 | 72 | 39 | 66 | 5.10 | -69 | 9 | 04/12/2025 12:30 PM |
| 37608 | -- | 3.83 | 0 | 71 | 39 | 66 | 5.10 | -71 | 8 | 04/12/2025 12:15 PM |
| 37607 | -- | 4.08 | 0 | 70 | 39 | 65 | 5.10 | -70 | 9 | 04/12/2025 12:00 PM |
| 37606 | -- | 3.83 | 0 | 70 | 39 | 66 | 5.10 | -71 | 8 | 04/12/2025 11:45 AM |
| 37605 | -- | 3.83 | 0 | 68 | 39 | 67 | 5.10 | -71 | 8 | 04/12/2025 11:30 AM |
| 37604 | -- | 3.98 | 0 | 68 | 39 | 67 | 5.10 | -69 | 9 | 04/12/2025 11:15 AM |
| 37603 | -- | 3.83 | 0 | 66 | 39 | 64 | 5.10 | -71 | 8 | 04/12/2025 11:00 AM |
| 37602 | -- | 3.83 | 0 | 65 | 39 | 63 | 5.10 | -69 | 9 | 04/12/2025 10:45 AM |
| 37601 | -- | 3.83 | 0 | 64 | 39 | 63 | 5.10 | -71 | 8 | 04/12/2025 10:30 AM |
| 37600 | -- | 3.83 | 0 | 64 | 39 | 62 | 5.10 | -70 | 9 | 04/12/2025 10:15 AM |
| 37599 | -- | 3.83 | 0 | 63 | 39 | 64 | 5.10 | -71 | 9 | 04/12/2025 10:00 AM |
| 37598 | -- | 3.89 | 0 | 62 | 39 | 63 | 5.10 | -71 | 9 | 04/12/2025 09:45 AM |